Regional Weather Roundup
Issued by NWS

Home | Current Version | Previous Version | Graphics & Text | Print | Product List | Glossary On
Versions: 1 2 3 4 5 6 7 8 9 10 11 12 13 14 15 16 17 18 19 20 21 22 23 24 25 26 27 28 29 30 31 32 33 34 35 36 37 38 39 40 41 42 43 44 45 46 47 48 49 50
785
ASUS43 KTOP 011508
RWRKS

WEATHER ROUNDUP FOR KANSAS
NATIONAL WEATHER SERVICE GOODLAND KS
1000 AM CDT SAT OCT 01 2016

NOTE:  "FAIR" INDICATES FEW OR NO CLOUDS BELOW 12,000 FEET WITH NO
SIGNIFICANT WEATHER AND/OR OBSTRUCTIONS TO VISIBILITY.

KSZ001>006-013>018-027>032-041>047-011600-
NORTHWEST KANSAS

CITY           SKY/WX    TMP DP  RH WIND       PRES   REMARKS
GOODLAND       CLOUDY    58  47  66 S8        30.12R
HAYS           SUNNY     63  45  51 S7        30.13S
HILL CITY      CLOUDY    60  51  72 E5        30.13S
RUSSELL        SUNNY     65  49  56 S7        30.12R
$$

KSZ061>065-074>080-084>089-011600-
SOUTHWEST KANSAS

CITY           SKY/WX    TMP DP  RH WIND       PRES   REMARKS
DODGE CITY     SUNNY     66  48  52 SE13      30.11S
ELKHART          N/A     63  51  65 W5          N/A
GARDEN CITY    SUNNY     62  49  62 SE12      30.08F
GREAT BEND     SUNNY     64  46  52 S12       30.12S
LIBERAL        SUNNY     64  52  63 S10       30.10S
PRATT          CLOUDY    61  46  56 S8        30.13S
$$

KSZ066>073-081>083-090>101-011600-
SOUTHEAST KANSAS

CITY           SKY/WX    TMP DP  RH WIND       PRES   REMARKS
CHANUTE        MOSUNNY   65  56  72 CALM      30.13S
COFFEYVILLE    MOSUNNY   63  55  75 CALM      30.13S
HUTCHINSON     CLOUDY    64  52  64 SE7       30.14R
MEDICINE LODGE   N/A     63  50  62 SE3       30.12R
NEWTON         CLOUDY    65  53  65 S6        30.14R
PARSONS        SUNNY     65  54  67 CALM      30.14R
WICHITA INTL   CLOUDY    63  53  70 E3        30.13R
WICHITA JABRA  CLOUDY    60  56  86 CALM      30.13R
WICHITA MCCONL CLOUDY    62  53  70 S3        30.13R
WINFIELD       CLOUDY    65  55  70 E3        30.14R
$$

KSZ007>012-019>026-033>040-048>060-102>105-011600-
NORTHEAST KANSAS

CITY           SKY/WX    TMP DP  RH WIND       PRES   REMARKS
CONCORDIA      SUNNY     57  54  89 E7        30.15R
EMPORIA        CLOUDY    58  55  90 E3        30.14R
LAWRENCE       MOSUNNY   59  58  96 CALM      30.14R
MANHATTAN      MOSUNNY   58  55  90 E3        30.14S
MARYSVILLE     CLOUDY    61  55  82 S3        30.15R
OLATHE IND     SUNNY     62  57  83 VRB3      30.14S
OLATHE EXE     SUNNY     62  55  77 CALM      30.13S
SALINA         SUNNY     63  52  67 E3        30.14R
TOPEKA BILLARD MOSUNNY   59  56  89 CALM      30.14S
TOPEKA FORBES  MOSUNNY   57  56  96 CALM      30.14S
$$




USA.gov is the U.S. government's official web portal to all federal, state and local government web resources and services.